Date String (YYYY-MM-DD hh:mm:ss) UTC,Instrument flags,Ambient pressure (hPa),Sample flow (lpm),Bypass flow (lpm),Sample temperature (°C),Ambient temperature (°C),ASC tube jacket temperature (°C),LED temperature (°C),Box temperature (°C),Sample RH (%),Span deviation,Mass concentration (μg/m³),Mass concentration (μg/m³),Mass concentration (μg/m³)
DateTimeUTC,F1_M11,P_M11,Q1_M11,Q2_M11,T1_M11,T2_M11,T3_M11,T4_M11,T5_M11,U1_M11,ZSPAN_M11,X0_M11,X2_M11,X1_M11
2022-01-01 18:00:00,,0821.2,5.00,0.00,22.5,23.1,00.0,31.4,24.4,06.4,0000.0,0002.80,0000.20,0000.01
2022-01-01 18:01:00,,0821.2,5.01,0.00,22.7,23.4,00.0,31.4,24.6,06.4,0000.0,0002.56,0000.21,0000.01
2022-01-01 18:02:00,,0821.2,5.00,0.00,22.7,23.2,00.0,31.5,24.6,06.5,0000.0,0002.36,0000.21,0000.01
2022-01-01 18:03:00,,0821.1,4.99,0.00,22.7,23.0,00.0,31.5,24.6,06.4,0000.0,0001.98,0000.20,0000.01
2022-01-01 18:04:00,,0821.2,5.01,0.00,22.7,22.8,00.0,31.5,24.5,06.4,0000.0,0001.95,0000.19,0000.01
2022-01-01 18:05:00,,0821.2,4.99,0.00,22.7,22.6,00.0,31.5,24.5,06.5,0000.0,0002.48,0000.14,0000.01
2022-01-01 18:06:00,,0821.2,5.01,0.00,22.7,22.5,00.0,31.5,24.4,06.6,0000.0,0003.48,0000.11,0000.01
2022-01-01 18:07:00,,0821.2,4.99,0.00,22.7,22.4,00.0,31.5,24.4,06.7,0000.0,0003.87,0000.12,0000.01
2022-01-01 18:08:00,,0821.2,5.01,0.00,22.7,22.2,00.0,31.5,24.4,06.8,0000.0,0003.67,0000.13,0000.02
2022-01-01 18:09:00,,0821.2,4.99,0.00,22.6,22.2,00.0,31.5,24.3,06.7,0000.0,0002.85,0000.18,0000.03
2022-01-01 18:10:00,,0821.2,5.00,0.00,22.6,22.1,00.0,31.5,24.3,06.7,0000.0,0002.90,0000.21,0000.03
2022-01-01 18:11:00,,0821.1,5.00,0.00,22.6,22.0,00.0,31.5,24.3,06.4,0000.0,0002.91,0000.22,0000.04
2022-01-01 18:12:00,,0821.1,5.01,0.00,22.6,22.0,00.0,31.5,24.3,06.4,0000.0,0002.88,0000.20,0000.03
2022-01-01 18:13:00,,0821.1,5.00,0.00,22.6,21.9,00.0,31.5,24.2,06.5,0000.0,0002.92,0000.21,0000.04
2022-01-01 18:14:00,,0821.1,5.00,0.00,22.6,21.9,00.0,31.5,24.2,06.6,0000.0,0002.94,0000.22,0000.04
2022-01-01 18:15:00,,0821.2,5.00,0.00,22.6,21.9,00.0,31.5,24.2,06.7,0000.0,0002.97,0000.23,0000.04
2022-01-01 18:16:00,,0821.1,5.00,0.00,22.6,22.4,00.0,31.5,24.3,06.7,0000.0,0002.32,0000.23,0000.04
2022-01-01 18:17:00,,0821.1,5.01,0.00,22.7,23.2,00.0,31.6,24.6,06.6,0000.0,0001.09,0000.22,0000.04
2022-01-01 18:18:00,,0821.1,4.99,0.00,22.9,23.6,00.0,31.6,24.8,06.5,0000.0,0000.63,0000.21,0000.04
2022-01-01 18:19:00,,0821.1,5.01,0.00,22.9,23.4,00.0,31.6,24.8,06.6,0000.0,0000.43,0000.17,0000.03
2022-01-01 18:20:00,,0821.1,5.00,0.00,22.9,23.2,00.0,31.7,24.8,06.6,0000.0,0000.29,0000.12,0000.02
2022-01-01 18:21:00,,0821.1,4.99,0.00,22.9,23.0,00.0,31.7,24.7,06.6,0000.0,0000.28,0000.11,0000.02
2022-01-01 18:22:00,,0821.1,5.02,0.00,22.9,22.8,00.0,31.7,24.7,06.5,0000.0,0000.22,0000.08,0000.02
2022-01-01 18:23:00,,0821.1,4.99,0.00,22.9,22.7,00.0,31.7,24.6,06.4,0000.0,0000.26,0000.09,0000.02
2022-01-01 18:24:00,,0821.0,5.00,0.00,22.9,22.6,00.0,31.7,24.6,06.4,0000.0,0000.23,0000.09,0000.03
2022-01-01 18:25:00,,0821.0,5.01,0.00,22.9,22.5,00.0,31.7,24.6,06.4,0000.0,0000.21,0000.08,0000.03
2022-01-01 18:26:00,,0821.0,4.99,0.00,22.8,22.4,00.0,31.7,24.6,06.5,0000.0,0000.18,0000.07,0000.03
2022-01-01 18:27:00,,0820.9,5.01,0.00,22.8,22.3,00.0,31.7,24.5,06.5,0000.0,0000.18,0000.07,0000.03
2022-01-01 18:28:00,,0820.9,4.99,0.00,22.8,22.3,00.0,31.7,24.5,06.3,0000.0,0000.18,0000.07,0000.02
2022-01-01 18:29:00,,0820.9,5.01,0.00,22.8,22.2,00.0,31.7,24.5,06.3,0000.0,0000.17,0000.07,0000.02
2022-01-01 18:30:00,,0820.9,5.00,0.00,22.8,22.2,00.0,31.7,24.5,06.4,0000.0,0000.39,0000.08,0000.02
2022-01-01 18:31:00,,0820.9,5.00,0.00,22.8,22.2,00.0,31.7,24.5,06.4,0000.0,0000.83,0000.09,0000.02
2022-01-01 18:32:00,,0820.9,5.01,0.00,22.7,22.1,00.0,31.7,24.5,06.5,0000.0,0000.96,0000.10,0000.01
2022-01-01 18:33:00,,0820.9,4.99,0.00,22.7,22.1,00.0,31.7,24.4,06.6,0000.0,0000.99,0000.11,0000.01
2022-01-01 18:34:00,,0820.9,5.01,0.00,22.7,22.1,00.0,31.7,24.4,06.5,0000.0,0001.02,0000.11,0000.01
2022-01-01 18:35:00,,0820.9,5.00,0.00,22.7,22.0,00.0,31.7,24.4,06.5,0000.0,0001.18,0000.12,0000.01
2022-01-01 18:36:00,,0820.9,4.99,0.00,22.7,22.1,00.0,31.7,24.4,06.5,0000.0,0001.29,0000.15,0000.01
2022-01-01 18:37:00,,0820.9,5.01,0.00,22.8,22.6,00.0,31.7,24.5,06.4,0000.0,0001.73,0000.15,0000.01
2022-01-01 18:38:00,,0820.9,4.99,0.00,22.9,23.4,00.0,31.7,24.8,06.4,0000.0,0001.87,0000.16,0000.01
2022-01-01 18:39:00,,0820.9,5.00,0.00,23.0,23.5,00.0,31.8,24.9,06.5,0000.0,0001.87,0000.16,0000.01
2022-01-01 18:40:00,,0820.9,5.01,0.00,23.0,23.3,00.0,31.8,24.9,06.5,0000.0,0001.87,0000.16,0000.01
2022-01-01 18:41:00,,0820.9,4.99,0.00,23.0,23.1,00.0,31.8,24.9,06.5,0000.0,0002.54,0000.14,0000.01
2022-01-01 18:42:00,,0820.9,5.00,0.00,23.0,23.0,00.0,31.8,24.8,06.3,0000.0,0002.58,0000.13,0000.01
2022-01-01 18:43:00,,0820.9,5.01,0.00,23.0,22.8,00.0,31.8,24.8,06.5,0000.0,0002.55,0000.12,0000.01
2022-01-01 18:44:00,,0821.0,4.98,0.00,23.0,22.7,00.0,31.8,24.8,06.5,0000.0,0002.70,0000.12,0000.01
2022-01-01 18:45:00,,0820.9,5.01,0.00,23.0,22.6,00.0,31.8,24.7,06.5,0000.0,0002.75,0000.12,0000.01
2022-01-01 18:46:00,,0820.9,4.99,0.00,23.0,22.5,00.0,31.8,24.7,06.4,0000.0,0002.89,0000.10,0000.01
2022-01-01 18:47:00,,0820.9,5.00,0.00,22.9,22.4,00.0,31.8,24.7,06.3,0000.0,0002.82,0000.08,0000.01
2022-01-01 18:48:00,,0820.9,5.00,0.00,22.9,22.4,00.0,31.9,24.7,06.1,0000.0,0002.37,0000.10,0000.02
2022-01-01 18:49:00,,0820.9,5.00,0.00,22.9,22.4,00.0,31.8,24.7,06.3,0000.0,0002.35,0000.12,0000.02
2022-01-01 18:50:00,,0820.9,5.00,0.00,22.9,22.3,00.0,31.8,24.6,06.4,0000.0,0002.40,0000.14,0000.02
2022-01-01 18:51:00,,0820.8,5.00,0.00,22.9,22.3,00.0,31.8,24.6,06.4,0000.0,0002.37,0000.15,0000.02
2022-01-01 18:52:00,,0820.8,5.01,0.00,22.9,22.3,00.0,31.8,24.6,06.5,0000.0,0001.46,0000.18,0000.02
2022-01-01 18:53:00,,0820.8,4.99,0.00,22.9,22.2,00.0,31.8,24.6,06.4,0000.0,0001.13,0000.17,0000.02
2022-01-01 18:54:00,,0820.8,5.01,0.00,22.9,22.2,00.0,31.8,24.6,06.4,0000.0,0001.07,0000.17,0000.02
2022-01-01 18:55:00,,0820.8,4.99,0.00,22.9,22.2,00.0,31.8,24.6,06.2,0000.0,0000.92,0000.16,0000.02
2022-01-01 18:56:00,,0820.8,5.00,0.00,22.8,22.2,00.0,31.8,24.6,06.3,0000.0,0000.82,0000.16,0000.02
2022-01-01 18:57:00,,0820.8,4.99,0.00,22.8,22.2,00.0,31.8,24.5,06.4,0000.0,0000.49,0000.16,0000.02
2022-01-01 18:58:00,,0820.9,5.02,0.00,22.8,22.2,00.0,31.8,24.5,06.4,0000.0,0000.50,0000.16,0000.02
2022-01-01 18:59:00,,0820.9,5.00,0.00,22.8,22.2,00.0,31.8,24.5,06.5,0000.0,0000.48,0000.15,0000.01
